Location: Eschertshofen
(49.3064°N, 11.5756°E)
Time: 12:53:37
(UTC+00:00)

Cosmos 2369 Rocket - Pass Details

Date: 18 September 2020
Orbit: 827 x 854 km, 71.0° (Epoch: 25 October)

Event Time Altitude Azimuth Distance (km) Brightness Sun altitude
Exits shadow 22:59:32 19° 38° (NE) 1,921 4.4 -39.3°
Drops below altitude 10° 23:01:02 10° 34° (NE) 2,468 5.1 -39.3°
Sets 23:03:32 0° 31° (NNE) 3,412 6.0 -39.3°
